Location: Sungai Igah
(2.7333°N, 114.2500°E)
Time: 18:35:06
(UTC+00:00)

Nadezhda 1 Rocket - Pass Details

Date: 14 June 2021
Orbit: 942 x 1004 km, 83.0° (Epoch: 24 July)

Event Time Altitude Azimuth Distance (km) Brightness Sun altitude
Rises 21:49:22 0° 359° (N) 3,650 7.3 -6.7°
Reaches altitude 10° 21:51:51 10° 1° (N) 2,714 6.7 -6.2°
Maximum altitude 21:58:04 78° 87° (E) 1,008 4.3 -4.7°
Drops below altitude 10° 22:04:25 10° 173° (S) 2,761 6.2 -3.3°
Sets 22:06:57 0° 174° (S) 3,717 6.9 -2.7°
